Estación de San Diego

Ultimos registro cada 15 minutos 50
Estación Fecha / Hora Temperatura Humedad Lluvia Velocidad Dirección Radiación Presion
50 San Diego 08-05-2026 12:15 17,8 56 0 0,9 122 564 1019,2
49 San Diego 08-05-2026 12:00 17,4 56 0 0,9 94 559 1019,4
48 San Diego 08-05-2026 11:45 16,8 63 0 0,4 138 547 1019,5
47 San Diego 08-05-2026 11:30 16,3 65 0 0 182 531 1019,8
46 San Diego 08-05-2026 11:15 15,7 65 0 0,4 349 515 1019,9
45 San Diego 08-05-2026 11:00 14,9 69 0 0 27 492 1020,1
44 San Diego 08-05-2026 10:45 14,2 73 0 0,4 355 257 1020,4
43 San Diego 08-05-2026 10:30 13,6 74 0 0 296 438 1020,6
42 San Diego 08-05-2026 10:15 12,3 78 0 0 107 404 1020,9
41 San Diego 08-05-2026 10:00 11,4 80 0 0 127 371 1021,1
40 San Diego 08-05-2026 09:45 10,8 83 0 0 164 329 1021,1
39 San Diego 08-05-2026 09:30 9,9 85 0 0 154 299 1020,8
38 San Diego 08-05-2026 09:15 8,7 90 0 0 347 258 1020,7
37 San Diego 08-05-2026 09:00 7,8 91 0 0 342 220 1020,7
36 San Diego 08-05-2026 08:45 7,2 95 0 0 270 77 1020,7
35 San Diego 08-05-2026 08:30 5,9 96 0 0 270 100 1020,3
34 San Diego 08-05-2026 08:15 4,3 95 0 0 270 21 1020,3
33 San Diego 08-05-2026 08:00 3,8 95 0 0 354 33 1020,4
32 San Diego 08-05-2026 07:45 3,6 94 0 0 305 12 1020,6
31 San Diego 08-05-2026 07:30 3,8 95 0 0 305 5 1020,5
30 San Diego 08-05-2026 07:15 3,7 94 0 0 320 0 1020,6
29 San Diego 08-05-2026 07:00 3,5 95 0 0 337 0 1020,6
28 San Diego 08-05-2026 06:45 3,1 93 0 0 345 0 1020,7
27 San Diego 08-05-2026 06:30 3,4 93 0 0 351 0 1020,5
26 San Diego 08-05-2026 06:15 3,6 93 0 0 351 0 1020,6
25 San Diego 08-05-2026 06:00 4,1 93 0 0 351 0 1021
24 San Diego 08-05-2026 05:45 4,2 94 0 0 354 0 1020,6
23 San Diego 08-05-2026 05:30 4 93 0 0 354 0 1020,2
22 San Diego 08-05-2026 05:15 4,2 92 0 0 354 0 1020,1
21 San Diego 08-05-2026 05:00 4,7 93 0 0 354 0 1020,3
20 San Diego 08-05-2026 04:45 5 93 0 0 354 0 1020,1
19 San Diego 08-05-2026 04:30 4,9 92 0 0 354 0 1019,8
18 San Diego 08-05-2026 04:15 5,1 92 0 0 354 0 1019,7
17 San Diego 08-05-2026 04:00 5,3 90 0 0 328 0 1020
16 San Diego 08-05-2026 03:45 5,9 91 0 0 16 0 1020,4
15 San Diego 08-05-2026 03:30 6,2 90 0 0 16 0 1020,8
14 San Diego 08-05-2026 03:15 6,4 89 0 0 16 0 1020,7
13 San Diego 08-05-2026 03:00 6,8 89 0 0 37 0 1021,1
12 San Diego 08-05-2026 02:45 7,2 86 0 0 341 0 1021,1
11 San Diego 08-05-2026 02:30 8,3 81 0 0 341 0 1021,2
10 San Diego 08-05-2026 02:15 10,8 74 0 0,9 314 0 1021
9 San Diego 08-05-2026 02:00 11,8 73 0 0,4 154 0 1021,2
8 San Diego 08-05-2026 01:45 11,7 73 0 1,3 164 0 1021,5
7 San Diego 08-05-2026 01:30 11,9 73 0 0,4 168 0 1021,6
6 San Diego 08-05-2026 01:15 12,3 71 0 0 150 0 1021,7
5 San Diego 08-05-2026 01:00 12,2 72 0 0,9 141 0 1021,8
4 San Diego 08-05-2026 00:45 12,1 72 0 1,3 196 0 1022
3 San Diego 08-05-2026 00:30 12,3 72 0 0 193 0 1022,3
2 San Diego 08-05-2026 00:15 12,4 71 0 0,9 186 0 1022,1
1 San Diego 08-05-2026 00:00 12,5 72 0 0 127 0 1022,1